Location: *
(42.5628°N, 2.3633°E)
Time: 02:13:00
(UTC+00:00)

Cosmos 1626 Rocket - Pass Details

Date: 30 March 2020
Orbit: 603 x 631 km, 82.5° (Epoch: 05 June)

Event Time Altitude Azimuth Distance (km) Brightness Sun altitude
Rises 19:04:07 0° 359° (N) 2,909 7.2 -9.8°
Reaches altitude 10° 19:06:30 10° 8° (N) 1,993 6.3 -10.2°
Maximum altitude 19:10:37 38° 76° (ENE) 953 4.1 -10.9°
Drops below altitude 10° 19:14:40 10° 145° (SE) 1,962 5.7 -11.6°
Enters shadow 19:14:44 10° 146° (SE) 1,986 5.7 -11.6°
